OE7SBH-WX Weather Reports


Display with metric or nautical units.
time (UTC)temp
F
wind
direction
speed
MPH
gust
MPH
rain 1hr
in
rain 24hr
in
rain mn
in
humidity
%
barometer
mb
20220818034018 64 0.0 0.0 0.00 0.00 0.00 66 1003.2
20220818033116 64 0.0 0.0 0.00 0.00 0.00 66 1003.2
20220818032032 64 0.0 0.0 0.00 0.00 0.00 66 1003.1
20220818031030 49 0.0 0.0 0.00 0.00 0.00 54 1003.0
20220818030016 -2 0.0 0.0 0.00 0.00 0.00 10 1003.2
20220818025045 -2 0.0 0.0 0.00 0.00 0.00 10 1003.2
20220818024105 -2 0.0 0.0 0.00 0.00 0.00 10 1003.1
20220818023130 -2 0.0 0.0 0.00 0.00 0.00 10 1003.1
20220818022116 -2 0.0 0.0 0.00 0.00 0.00 10 1003.0
20220818021021 -2 0.0 0.0 0.00 0.00 0.00 10 1003.0
20220818020045 -2 0.0 0.0 0.00 0.00 0.00 10 1002.8
20220818015049 -2 0.0 0.0 0.00 0.00 0.00 10 1002.7
20220818014155 -2 0.0 0.0 0.00 0.00 0.00 10 1002.7
20220818013035 -2 0.0 0.0 0.00 0.00 0.00 10 1002.5
20220818012102 -2 0.0 0.0 0.00 0.00 0.00 10 1002.4
20220818011045 -2 0.0 0.0 0.00 0.00 0.00 10 1002.3
20220818010129 -2 0.0 0.0 0.00 0.00 0.00 10 1002.1
20220818005135 -2 0.0 0.0 0.00 0.00 0.00 10 1002.2
20220818004033 -2 0.0 0.0 0.00 0.00 0.00 10 1002.0
20220818003101 -2 0.0 0.0 0.00 0.00 0.00 10 1002.2
20220818001122 -2 0.0 0.0 0.00 0.00 0.00 10 1002.0
20220818000106 -2 0.0 0.0 0.00 0.00 0.00 10 1002.1
20220817235027 -2 0.0 0.0 0.00 0.00 0.00 10 1002.0
20220817234112 -2 0.0 0.0 0.00 0.00 0.00 10 1002.0
20220817233043 -2 0.0 0.0 0.00 0.00 0.00 10 1002.0
20220817232047 -2 0.0 0.0 0.00 0.00 0.00 10 1002.1
20220817231110 -2 0.0 0.0 0.00 0.00 0.00 10 1002.1
20220817230136 -2 0.0 0.0 0.00 0.00 0.00 10 1002.0
20220817225100 -2 0.0 0.0 0.00 0.00 0.00 10 1001.8
20220817224103 -2 0.0 0.0 0.00 0.00 0.00 10 1001.9
20220817223049 -2 0.0 0.0 0.00 0.00 0.00 10 1002.0
20220817222147 -2 0.0 0.0 0.00 0.00 0.00 10 1001.8
20220817221019 72 0.0 0.0 0.00 0.00 0.00 61 1001.7
20220817220102 72 0.0 0.0 0.00 0.00 0.00 61 1001.7
20220817215049 72 0.0 0.0 0.00 0.00 0.00 61 1001.6
20220817214045 72 0.0 0.0 0.00 0.00 0.00 60 1001.5
20220817213035 72 0.0 0.0 0.00 0.00 0.00 60 1001.4
20220817212021 73 0.0 0.0 0.00 0.00 0.00 60 1001.3
20220817211039 73 0.0 0.0 0.00 0.00 0.00 60 1001.3
20220817210016 73 0.0 0.0 0.00 0.00 0.00 60 1001.6
20220817205040 73 0.0 0.0 0.00 0.00 0.00 59 1001.6
20220817204144 -2 0.0 0.0 0.00 0.00 0.00 10 1001.6
20220817203104 74 0.0 0.0 0.00 0.00 0.00 58 1001.7
20220817202035 74 0.0 0.0 0.00 0.00 0.00 58 1001.7
20220817201042 74 0.0 0.0 0.00 0.00 0.00 58 1001.6
20220817200038 74 0.0 0.0 0.00 0.00 0.00 58 1001.6
20220817195222 75 0.0 0.0 0.00 0.00 0.00 58 1001.6
20220817194033 75 0.0 0.0 0.00 0.00 0.00 58 1001.8
20220817193017 -3 0.0 0.0 0.00 0.00 0.00 29 1002.2
20220817192035 -3 0.0 0.0 0.00 0.00 0.00 10 1001.9
20220817191036 -3 0.0 0.0 0.00 0.00 0.00 10 1001.8
20220817190124 -3 0.0 0.0 0.00 0.00 0.00 10 1001.3
20220817185103 -3 0.0 0.0 0.00 0.00 0.00 10 1000.6
20220817184111 31 0.0 0.0 0.00 0.00 0.00 30 1000.7
20220817183211 77 0.0 0.0 0.00 0.00 0.00 57 1000.5
20220817182112 78 0.0 0.0 0.00 0.00 0.00 57 1000.8
20220817181041 78 0.0 0.0 0.00 0.00 0.00 57 1000.8
20220817180017 79 0.0 0.0 0.00 0.00 0.00 57 1000.7
20220817175122 79 0.0 0.0 0.00 0.00 0.00 57 1000.8
20220817174026 79 0.0 0.0 0.00 0.00 0.00 56 1001.2
20220817173036 80 0.0 0.0 0.00 0.00 0.00 56 1001.2
20220817172114 80 0.0 0.0 0.00 0.00 0.00 55 1001.0
20220817171017 80 0.0 0.0 0.00 0.00 0.00 54 1001.0
20220817170100 81 0.0 0.0 0.00 0.00 0.00 54 1001.1
20220817165029 81 0.0 0.0 0.00 0.00 0.00 54 1001.1
20220817164050 81 0.0 0.0 0.00 0.00 0.00 54 1000.9
20220817163129 82 0.0 0.0 0.00 0.00 0.00 53 1000.9
20220817162058 82 0.0 0.0 0.00 0.00 0.00 53 1001.2
20220817161037 82 0.0 0.0 0.00 0.00 0.00 53 1001.2
20220817160042 82 0.0 0.0 0.00 0.00 0.00 53 1001.2
20220817155117 83 0.0 0.0 0.00 0.00 0.00 53 1001.3
20220817154055 84 0.0 0.0 0.00 0.00 0.00 53 1001.3
20220817153137 84 0.0 0.0 0.00 0.00 0.00 53 1001.2
20220817152132 84 0.0 0.0 0.00 0.00 0.00 52 1001.3
20220817151122 84 0.0 0.0 0.00 0.00 0.00 52 1001.0
20220817150100 84 0.0 0.0 0.00 0.00 0.00 52 1001.1
20220817145104 84 0.0 0.0 0.00 0.00 0.00 52 1001.1
20220817144140 84 0.0 0.0 0.00 0.00 0.00 52 1001.1
20220817143116 84 0.0 0.0 0.00 0.00 0.00 51 1001.2
20220817142305 85 0.0 0.0 0.00 0.00 0.00 50 1001.4
20220817141043 85 0.0 0.0 0.00 0.00 0.00 51 1001.5
20220817140038 85 0.0 0.0 0.00 0.00 0.00 49 1001.7
20220817135105 85 0.0 0.0 0.00 0.00 0.00 47 1001.8
20220817134059 85 0.0 0.0 0.00 0.00 0.00 47 1001.8
20220817132018 85 0.0 0.0 0.00 0.00 0.00 48 1001.8
20220817131124 86 0.0 0.0 0.00 0.00 0.00 48 1001.9
20220817130056 86 0.0 0.0 0.00 0.00 0.00 46 1002.0
20220817125031 86 0.0 0.0 0.00 0.00 0.00 46 1002.0
20220817124044 86 0.0 0.0 0.00 0.00 0.00 46 1002.1
20220817123102 85 0.0 0.0 0.00 0.00 0.00 49 1002.2
20220817122021 86 0.0 0.0 0.00 0.00 0.00 49 1002.0
20220817121017 86 0.0 0.0 0.00 0.00 0.00 48 1001.8
20220817120055 86 0.0 0.0 0.00 0.00 0.00 49 1001.9
20220817115118 86 0.0 0.0 0.00 0.00 0.00 49 1002.2
20220817114111 86 0.0 0.0 0.00 0.00 0.00 49 1002.2
20220817113021 86 0.0 0.0 0.00 0.00 0.00 48 1002.3
20220817112022 86 0.0 0.0 0.00 0.00 0.00 48 1002.3
20220817111125 86 0.0 0.0 0.00 0.00 0.00 48 1002.3
20220817110055 87 0.0 0.0 0.00 0.00 0.00 48 1002.3
20220817105127 87 0.0 0.0 0.00 0.00 0.00 47 1002.2
20220817104023 87 0.0 0.0 0.00 0.00 0.00 45 1002.4
20220817103016 87 0.0 0.0 0.00 0.00 0.00 46 1002.4
20220817102118 86 0.0 0.0 0.00 0.00 0.00 46 1002.5
20220817101056 87 0 56.0 56.0 0.00 0.00 0.00 45 1002.7
20220817100148 86 0.0 0.0 0.00 0.00 0.00 45 1002.6
20220817095023 86 0.0 0.0 0.00 0.00 0.00 45 1002.6
20220817094015 86 0.0 0.0 0.00 0.00 0.00 47 1002.6
20220817093037 85 0.0 0.0 0.00 0.00 0.00 45 1002.8
20220817092019 86 0.0 0.0 0.00 0.00 0.00 46 1002.8
20220817091041 86 0.0 0.0 0.00 0.00 0.00 46 1002.9
20220817090112 56 0.0 0.0 0.00 0.00 0.00 34 1002.7
20220817085109 -2 0.0 0.0 0.00 0.00 0.00 10 1002.8
20220817084113 -2 0.0 0.0 0.00 0.00 0.00 10 1003.0
20220817083032 -2 0.0 0.0 0.00 0.00 0.00 10 1003.1
20220817082136 -2 0.0 0.0 0.00 0.00 0.00 10 1003.3
20220817081040 -2 0.0 0.0 0.00 0.00 0.00 10 1003.3
20220817080119 -2 0.0 0.0 0.00 0.00 0.00 10 1003.3
20220817075103 -2 0.0 0.0 0.00 0.00 0.00 10 1003.3
20220817074018 -2 0.0 0.0 0.00 0.00 0.00 10 1003.4
20220817073041 -2 0.0 0.0 0.00 0.00 0.00 10 1003.4
20220817072103 -2 0.0 0.0 0.00 0.00 0.00 10 1003.5
20220817071027 -2 0.0 0.0 0.00 0.00 0.00 10 1003.3
20220817070051 -2 0.0 0.0 0.00 0.00 0.00 10 1003.5
20220817065112 -2 0.0 0.0 0.00 0.00 0.00 10 1003.5
20220817064053 -2 0.0 0.0 0.00 0.00 0.00 10 1003.5
20220817063050 -2 0.0 0.0 0.00 0.00 0.00 10 1003.4
20220817062146 -2 0.0 0.0 0.00 0.00 0.00 10 1003.2
20220817061106 -2 0.0 0.0 0.00 0.00 0.00 10 1003.2
20220817060201 60 0.0 0.0 0.00 0.00 0.00 72 1003.5
20220817054048 60 0.0 0.0 0.00 0.00 0.00 72 1003.6
20220817053123 59 0.0 0.0 0.00 0.00 0.00 72 1003.4
20220817052016 59 0.0 0.0 0.00 0.00 0.00 72 1003.5
20220817051017 59 0.0 0.0 0.00 0.00 0.00 72 1003.5
20220817050016 59 0.0 0.0 0.00 0.00 0.00 72 1003.6
20220817045037 59 0.0 0.0 0.00 0.00 0.00 71 1003.4
20220817044051 59 0.0 0.0 0.00 0.00 0.00 71 1003.2
20220817043043 59 0.0 0.0 0.00 0.00 0.00 71 1003.3
20220817042020 59 0.0 0.0 0.00 0.00 0.00 70 1003.5
20220817041103 59 0.0 0.0 0.00 0.00 0.00 70 1003.2
20220817040117 60 0.0 0.0 0.00 0.00 0.00 70 1003.4
20220817035017 60 0.0 0.0 0.00 0.00 0.00 70 1003.2